This is the latest recevied weather packets stored in our database for station/object KF7U. If no packets are shown the sender has not sent any weather packets the latest 10 day(s).
| Time | Temp. | Humidity | Pressure | Rain* | Wind** | Luminosity | Snow |
|---|---|---|---|---|---|---|---|
| 1777502254 | 30.56° C | 12% | 1009.8 hPa | 0 mm | - | 532 W/m² | - |
| 1777501955 | 30.56° C | 12% | 1010.2 hPa | 0 mm | - | 419 W/m² | - |
| 1777501654 | 30.56° C | 12% | 1010.2 hPa | 0 mm | - | 634 W/m² | - |
| 1777501354 | 30° C | 11% | 1010.2 hPa | 0 mm | - | 494 W/m² | - |
| 1777501055 | 30.56° C | 11% | 1010.5 hPa | 0 mm | - | 662 W/m² | - |
| 1777500755 | 30.56° C | 11% | 1010.5 hPa | 0 mm | - | 530 W/m² | - |
| 1777500455 | 31.11° C | 11% | 1010.5 hPa | 0 mm | - | 664 W/m² | - |
| 1777500154 | 31.67° C | 11% | 1010.5 hPa | 0 mm | - | 660 W/m² | - |
| 1777499854 | 31.67° C | 12% | 1010.8 hPa | 0 mm | - | 882 W/m² | - |
| 1777499555 | 32.22° C | 11% | 1010.8 hPa | 0 mm | - | 936 W/m² | - |
| 1777499255 | 32.22° C | 10% | 1010.8 hPa | 0 mm | - | 641 W/m² | - |
| 1777498956 | 31.67° C | 12% | 1010.8 hPa | 0 mm | - | 928 W/m² | - |
| 1777498654 | 31.67° C | 12% | 1010.8 hPa | 0 mm | - | 868 W/m² | - |
| 1777498354 | 31.67° C | 11% | 1010.5 hPa | 0 mm | - | 816 W/m² | - |
| 1777498055 | 31.11° C | 12% | 1010.5 hPa | 0 mm | - | 955 W/m² | - |
| 1777497754 | 31.11° C | 11% | 1010.8 hPa | 0 mm | - | 915 W/m² | - |
| 1777497454 | 31.11° C | 11% | 1010.8 hPa | 0 mm | - | - | - |
| 1777497155 | 31.11° C | 11% | 1010.8 hPa | 0 mm | - | 952 W/m² | - |
| 1777496855 | 31.67° C | 11% | 1010.8 hPa | 0 mm | - | 855 W/m² | - |
| 1777496554 | 32.22° C | 11% | 1011.2 hPa | 0 mm | - | 999 W/m² | - |
| 1777496254 | 31.67° C | 12% | 1011.2 hPa | 0 mm | - | 965 W/m² | - |
| 1777495955 | 31.11° C | 12% | 1011.2 hPa | 0 mm | - | - | - |
| 1777495654 | 31.67° C | 11% | 1011.2 hPa | 0 mm | - | 865 W/m² | - |
| 1777495355 | 31.11° C | 12% | 1011.2 hPa | 0 mm | - | - | - |
| 1777495054 | 30.56° C | 12% | 1011.2 hPa | 0 mm | - | 926 W/m² | - |
* Rain latest hour (hover to see other rain measurements)
** Current wind speed in m/s (hover to see current wind gust speed)